www.pogodaiklimat.ru

Погода и климат >> Архив погоды >> Россия >> Дагестан >> Касумкент


ПОГОДА в Касумкенте

  • Прогноз погоды в Касумкенте
  • Монитор погоды в Касумкенте

АРХИВ ПОГОДЫ в Касумкенте

Время (UTC), дата Ветер
(напр.,м/с)
 
Видим.   Явления Облачность Т
(С)
Тd
(С)
f
(%)
Тe
(С)
Тes
(С)
Комфортность P
(гПа)
Po
(гПа)
Тmin
(С)
Tmax
(С)
R
(мм)
R24
(мм)
S
(см)
06 19.08 СВ 1 50 км ясно +31.2 +8.0 24 +30 +42 жарко 1012.3 960.0
09 19.08 В 3 50 км ясно +34.1 +6.8 18 +32 +46 жарко 1011.8 960.0
12 19.08 В 4 50 км ясно +33.5 +7.0 19 +32 +37 жарко 1012.1 960.2
15 19.08 В 2 50 км ясно +28.5 +8.5 28 +28 +28 жарко 1013.9 961.1 +34.4
18 19.08 З 1 10 км ясно +21.8 +10.9 50 +24 +24 комфорт 1016.6 962.5
21 19.08 З 1 10 км ясно +20.4 +10.6 53 +23 +23 комфорт 1016.7 962.4
00 20.08 З 1 10 км ясно +20.3 +10.1 52 +23 +23 комфорт 1016.6 962.3
03 20.08 З 1 50 км ясно +21.5 +8.2 42 +23 +23 комфорт 1017.2 963.0 +17.8
06 20.08 СВ 2 50 км ясно +33.8 +2.8 14 +31 +41 жарко 1014.8 962.8
09 20.08 В 3 50 км ясно +34.0 +8.1 20 +32 +46 жарко 1014.2 962.3
12 20.08 В 3 50 км ясно +33.5 +9.8 23 +33 +40 жарко 1013.5 961.6
15 20.08 В 1 50 км ясно +28.4 +9.8 31 +28 +29 жарко 1014.3 961.5 +34.4
18 20.08 З 1 10 км ясно +22.2 +12.0 52 +25 +25 комфорт 1016.4 962.4
21 20.08 З 2 10 км ясно +21.1 +11.3 54 +23 +23 комфорт 1016.2 962.1
00 21.08 З 1 10 км ясно +19.0 +10.1 56 +21 +21 комфорт 1015.7 961.2
03 21.08 З 2 50 км ясно +20.4 +10.2 52 +23 +23 комфорт 1015.8 961.5 +18.5
06 21.08 В 1 50 км ясно +31.7 +10.6 27 +31 +43 жарко 1013.8 961.6
09 21.08 В 3 50 км ясно +34.6 +4.3 15 +32 +46 жарко 1012.0 960.3
12 21.08 В 3 50 км ясно +33.0 +8.3 22 +32 +39 жарко 1011.2 959.3
15 21.08 СВ 1 50 км ясно +29.5 +9.6 29 +29 +30 жарко 1011.4 958.9 +35.0
18 21.08 З 1 10 км ясно +22.0 +10.6 48 +24 +24 комфорт 1012.6 958.8
21 21.08 З 2 10 км ясно +20.5 +10.1 51 +23 +23 комфорт 1012.5 958.4
00 22.08 З 2 10 км ясно +19.7 +10.0 53 +21 +21 комфорт 1011.9 957.7
03 22.08 З 1 50 км ясно +20.7 +10.0 50 +23 +24 комфорт 1012.3 958.2 +18.9
06 22.08 С 1 50 км ясно +30.5 +8.2 25 +30 +41 жарко 1009.9 957.6
09 22.08 В 2 50 км ясно +34.6 +9.0 21 +33 +50 жарко 1008.2 956.7
12 22.08 СВ 3 50 км ясно +34.0 +13.9 30 +35 +42 очень
жарко
1008.0 956.5
15 22.08 СВ 1 50 км ясно +28.5 +15.4 45 +31 +31 душно 1009.0 956.6 +33.8
18 22.08 З 1 10 км ясно +22.4 +15.6 65 +26 +26 жарко 1011.5 957.9
21 22.08 З 1 10 км ясно +20.8 +13.2 62 +24 +24 комфорт 1011.8 957.9
00 23.08 З 1 10 км ясно +19.9 +11.4 58 +23 +23 комфорт 1012.0 957.9
03 23.08 З 1 50 км ясно +21.0 +11.4 54 +24 +25 комфорт 1012.0 958.0 +18.4
06 23.08 В 1 50 км ясно +32.6 +10.9 26 +32 +44 жарко 1009.8 957.9
09 23.08 СВ 2 50 км ясно +34.6 +10.0 22 +34 +50 очень
жарко
1009.0 957.5
12 23.08 В 3 50 км ясно +35.2 +9.9 21 +34 +41 очень
жарко
1007.8 956.4
15 23.08 С 1 50 км ясно +29.3 +17.1 48 +33 +33 душно 1008.4 956.2 +35.8
18 23.08 З 1 10 км ясно +24.3 +14.8 55 +27 +27 жарко 1010.6 957.3
21 23.08 З 1 10 км ясно +22.4 +13.3 56 +25 +25 комфорт 1011.2 957.6
00 24.08 З 1 10 км ясно +20.9 +12.1 57 +24 +24 комфорт 1011.8 957.8
03 24.08 З 2 50 км ясно +21.5 +11.8 54 +24 +24 комфорт 1012.8 958.9 +19.9
06 24.08 СВ 2 20 км 6/4 600 м
[Sc Ac trans Ci fib]
+31.0 +10.8 29 +31 +36 жарко 1011.0 958.8
09 24.08 СВ 2 50 км 5/0
[Ac As Ci fib]
+34.8 +11.1 24 +34 +46 очень
жарко
1009.6 958.1
12 24.08 В 1 20 км 8/3 600 м
[Sc Ac As Ci sp]
+32.6 +14.1 33 +34 +38 очень
жарко
1009.5 957.7
15 24.08 С 1 50 км 4/0
[Ac cast]
+28.7 +17.7 51 +33 +33 очень
душно
1010.6 958.2 +35.8
18 24.08 штиль 0 10 км ясно +23.2 +16.3 65 +28 +28 душно 1013.2 959.7
21 24.08 З 2 10 км ясно +20.7 +13.4 63 +24 +24 комфорт 1014.1 960.0
00 25.08 З 1 10 км ясно +21.6 +8.9 44 +23 +23 комфорт 1013.5 959.5
03 25.08 З 2 50 км ясно +21.5 +7.3 40 +22 +23 комфорт 1014.7 960.6 +17.9
06 25.08 СВ 1 50 км ясно +32.3 +6.5 20 +30 +42 жарко 1013.1 960.9
09 25.08 СВ 3 50 км ясно +23.4 +1.0 23 +22 +36 комфорт 1011.8 959.8
12 25.08 В 3 50 км ясно +30.3 +9.4 27 +30 +37 жарко 1012.0 959.6
15 25.08 С 2 20 км 9/0
[Ac und]
+26.2 +15.3 51 +29 +29 жарко 1013.1 960.1 +33.9
18 25.08 З 1 10 км ясно +20.9 +13.7 63 +25 +25 комфорт 1015.5 961.4
21 25.08 штиль 0 10 км ясно +20.3 +13.0 63 +22 +22 комфорт 1015.7 961.5
00 26.08 З 1 10 км ясно +18.7 +12.1 65 +20 +20 1016.8 962.1
03 26.08 З 2 50 км ясно +18.9 +11.0 60 +20 +21 1017.4 962.8 +17.4

 

Местоположение метеостанции Касумкент (Дагестан, Россия): широта 41.67 долгота 48.15 высота над уровнем моря 477 м.

В архиве по умолчанию представлена погода в Касумкенте за последнюю неделю. Архивные данные за месяц целиком и за предыдущие месяцы, начиная с января 2011 года, Вы можете получить, выбрав интересующий диапазон дат из раскрывающегося списка и нажав кнопку "Ввод!".


*Определитесь, кто Вы:
робот инопланетянин человек

Внимание! Время в таблицах - всемирное. Для получения местного времени необходимо прибавить поправку, которая равна 3 ч.

Смотрите также архив погоды в соседних городах и на ближайших метеорологических станциях:

Погода в Ахты (Дагестан, Россия) (40 км)
Погода в Губе (Азербайджан) (45 км)
Погода в Дербенте (Дагестан, Россия) (46 км)
Погода в Габале (Азербайджан) (80 км)
Погода в Сергокале (Дагестан, Россия) (95 км)
Погода в Шеках (Азербайджан) (96 км)
Погода в Изберге (Дагестан, Россия) (98 км)
Погода в Кумухе (Дагестан, Россия) (99 км)
Погода в Геокчае (Азербайджан) (118 км)
Погода в Куппе (Дагестан, Россия) (121 км)

Пояснения к столбцам:

Ветер - указаны скорость ветра в м/с - средняя за 10 мин, порывы в срок и между сроками (в фигурных скобках) и направление, откуда дует ветер: С - северный, СВ - северо-восточный, В - восточный, ЮВ - юго-восточный, Ю - южный, ЮЗ - юго-западный, З - западный, СЗ - северо-западный.
Видимость - горизонтальная дальность видимости в метрах или километрах. При видимости от 1 до 10 км при отсутствии осадков обычно наблюдается дымка, при ухудшении видимости до 1 км и менее - туман. В сухую погоду видимость может ухудшаться дымом, пылью или мглою.
Явления - указаны атмосферные явления, наблюдавшиеся в срок или в последний час перед сроком; фигурными скобками обозначены явления, наблюдавшиеся между сроками (за 1-3 часа до срока); квадратными скобками обозначены град или гололедные отложения с указанием их диаметра в мм.
Облачность - указаны через наклонную черту общая и нижняя облачность в баллах и высота нижней границы облаков в метрах; квадратными скобками обозначены формы облаков: Ci - перистые, Cs - перисто-слоистые, Cc - перисто-кучевые, Ac - высококучевые, As - высокослоистые, Sc - слоисто-кучевые, Ns - слоисто-дождевые, Cu - кучевые, Cb - кучево-дождевые. Подробнее классификацию облаков см. в Атласе облаков (PDF).
T - Температура воздуха - температура, измеренная на высоте 2 м над землей.
Td - Температура точки росы - температура, при понижении до которой содержащийся в воздухе водяной пар достигнет насыщения.
f - Относительная влажность воздуха - влажноcть воздуха, измеренная на высоте 2 м над землей.
Te - Эффективная температура - температура, которую ощущает одетый по сезону человек в тени. Характеристика душности погоды. При расчете учитывается влияние влажности воздуха и скорости ветра на теплоощущения человека.
Tes - Эффективная температура на солнце - температура, которую ощущает человек, с поправкой на солнечный нагрев. Характеристика знойности погоды. Зависит от высоты солнца над горизонтом, облачности и скорости ветра. Ночью, в пасмурную погоду, а также при ветре 12 м/с и более поправка равна нулю.
P - Атмосферное давление - приведенное к уровню моря атмосферное давление.
Po - Атмосферное давление - измеренное на уровне метеостанции атмосферное давление.
Tmin - Минимальная температура - минимум температуры воздуха на высоте 2 м над землей.
Tmax - Максимальная температура - максимум температуры воздуха на высоте 2 м над землей.
R - Количество осадков - Количество выпавших осадков за период времени, мм. При наведении курсора мыши на число - период времени, за который выпало указанное количество осадков.
R24 - Количество осадков - Количество выпавших осадков за 24 часа, мм.
S - Снежный покров - Высота снежного покрова, см. При наведении курсора мыши на число - состояние снежного покрова и степень покрытия местности в баллах.